Stündliche Wetter La Calera

Heute, 16 Mai, Sonntag

Zeit Temperatur Niederschläge Wind Luftdruck Luftfeuchtigkeit
00:00 +16°C° 0 mm 1 m/S 744 mmHg 66%
01:00 +16°C° 0 mm 1 m/S 744 mmHg 65%
02:00 +15°C° 0 mm 1 m/S 743 mmHg 65%
03:00 +15°C° 0 mm 1 m/S 743 mmHg 64%
04:00 +15°C° 0 mm 1 m/S 743 mmHg 64%
05:00 +16°C° 0 mm 1 m/S 743 mmHg 60%
06:00 +16°C° 0 mm 1 m/S 743 mmHg 57%
07:00 +18°C° 0 mm 1 m/S 743 mmHg 54%
08:00 +20°C° 0 mm 1 m/S 743 mmHg 46%
09:00 +23°C° 0 mm 1 m/S 743 mmHg 39%
10:00 +26°C° 0 mm 1 m/S 743 mmHg 31%
11:00 +27°C° 0 mm 1 m/S 742 mmHg 29%
12:00 +28°C° 0 mm 1 m/S 742 mmHg 27%
13:00 +29°C° 0 mm 2 m/S 741 mmHg 25%
14:00 +28°C° 0 mm 1 m/S 741 mmHg 28%
15:00 +27°C° 0 mm 1 m/S 741 mmHg 31%
16:00 +26°C° 0 mm 1 m/S 741 mmHg 34%
17:00 +25°C° 0 mm 1 m/S 741 mmHg 38%
18:00 +23°C° 0 mm 1 m/S 742 mmHg 43%
19:00 +19°C° 0 mm 0 m/S 742 mmHg 47%
20:00 +19°C° 0 mm 0 m/S 742 mmHg 49%
21:00 +18°C° 0 mm 0 m/S 742 mmHg 51%
22:00 +18°C° 0 mm 0 m/S 742 mmHg 52%
23:00 +18°C° 0 mm 0 m/S 742 mmHg 52%

Morgen, 17 Mai, Montag

Zeit Temperatur Niederschläge Wind Luftdruck Luftfeuchtigkeit
00:00 +17°C° 0 mm 0 m/S 742 mmHg 52%
01:00 +17°C° 0 mm 0 m/S 742 mmHg 52%
02:00 +17°C° 0 mm 0 m/S 742 mmHg 53%
03:00 +16°C° 0 mm 0 m/S 742 mmHg 54%
04:00 +16°C° 0 mm 0 m/S 741 mmHg 54%
05:00 +16°C° 0 mm 0 m/S 741 mmHg 53%
06:00 +17°C° 0 mm 0 m/S 742 mmHg 52%
07:00 +17°C° 0 mm 0 m/S 742 mmHg 51%
08:00 +22°C° 0 mm 1 m/S 742 mmHg 44%
09:00 +24°C° 0 mm 1 m/S 742 mmHg 37%
10:00 +27°C° 0 mm 1 m/S 742 mmHg 30%
11:00 +28°C° 0 mm 1 m/S 742 mmHg 29%
12:00 +29°C° 0 mm 2 m/S 741 mmHg 29%
13:00 +29°C° 0 mm 2 m/S 741 mmHg 28%
14:00 +28°C° 0 mm 2 m/S 741 mmHg 32%
15:00 +27°C° 0 mm 2 m/S 741 mmHg 37%
16:00 +25°C° 0 mm 2 m/S 741 mmHg 41%
17:00 +23°C° 0 mm 1 m/S 741 mmHg 47%
18:00 +22°C° 0 mm 1 m/S 741 mmHg 52%
19:00 +18°C° 0 mm 0 m/S 741 mmHg 58%
20:00 +18°C° 0 mm 0 m/S 741 mmHg 58%
21:00 +17°C° 0 mm 0 m/S 741 mmHg 58%
22:00 +17°C° 0 mm 0 m/S 741 mmHg 58%
23:00 +17°C° 0 mm 0 m/S 741 mmHg 58%

übermorgen, 18 Mai, Dienstag

Zeit Temperatur Niederschläge Wind Luftdruck Luftfeuchtigkeit
00:00 +17°C° 0 mm 0 m/S 741 mmHg 59%
01:00 +16°C° 0 mm 0 m/S 741 mmHg 59%
02:00 +16°C° 0 mm 0 m/S 741 mmHg 60%
03:00 +16°C° 0 mm 0 m/S 740 mmHg 62%
04:00 +15°C° 0 mm 0 m/S 740 mmHg 63%
05:00 +15°C° 0 mm 0 m/S 741 mmHg 62%
06:00 +16°C° 0 mm 1 m/S 741 mmHg 62%
07:00 +16°C° 0 mm 1 m/S 741 mmHg 61%
08:00 +20°C° 0 mm 1 m/S 741 mmHg 54%
09:00 +22°C° 0 mm 1 m/S 742 mmHg 48%
10:00 +24°C° 0 mm 2 m/S 742 mmHg 41%
11:00 +24°C° 0 mm 2 m/S 742 mmHg 41%
12:00 +24°C° 0 mm 2 m/S 742 mmHg 42%
13:00 +24°C° 0 mm 3 m/S 741 mmHg 43%
14:00 +22°C° 0 mm 3 m/S 742 mmHg 49%
15:00 +21°C° 0 mm 3 m/S 742 mmHg 55%
16:00 +19°C° 0 mm 2 m/S 742 mmHg 61%
17:00 +19°C° 0 mm 2 m/S 742 mmHg 64%
18:00 +18°C° 0 mm 2 m/S 742 mmHg 68%
19:00 +18°C° 0 mm 1 m/S 742 mmHg 71%
20:00 +16°C° 0 mm 2 m/S 742 mmHg 76%
21:00 +15°C° 0 mm 2 m/S 742 mmHg 80%
22:00 +15°C° 0 mm 2 m/S 743 mmHg 85%
23:00 +14°C° 0 mm 2 m/S 743 mmHg 88%

19 Mai, Mittwoch

Zeit Temperatur Niederschläge Wind Luftdruck Luftfeuchtigkeit
00:00 +14°C° 0 mm 2 m/S 743 mmHg 91%
01:00 +13°C° 0 mm 2 m/S 744 mmHg 94%
02:00 +13°C° 0 mm 1 m/S 743 mmHg 90%
03:00 +14°C° 0 mm 1 m/S 743 mmHg 87%
04:00 +14°C° 0 mm 1 m/S 743 mmHg 83%
05:00 +14°C° 0 mm 1 m/S 743 mmHg 83%
06:00 +14°C° 0 mm 1 m/S 744 mmHg 83%
07:00 +14°C° 0 mm 1 m/S 744 mmHg 82%
08:00 +15°C° 0 mm 1 m/S 744 mmHg 74%
09:00 +18°C° 0 mm 1 m/S 744 mmHg 66%
10:00 +19°C° 0 mm 1 m/S 744 mmHg 58%
11:00 +19°C° 0 mm 2 m/S 744 mmHg 53%
12:00 +19°C° 0 mm 2 m/S 744 mmHg 48%
13:00 +20°C° 0 mm 2 m/S 744 mmHg 43%
14:00 +20°C° 0 mm 2 m/S 744 mmHg 45%
15:00 +19°C° 0 mm 2 m/S 744 mmHg 48%
16:00 +19°C° 0 mm 1 m/S 744 mmHg 50%
17:00 +19°C° 0 mm 1 m/S 744 mmHg 53%
18:00 +18°C° 0 mm 1 m/S 744 mmHg 55%
19:00 +18°C° 0 mm 1 m/S 744 mmHg 57%
20:00 +18°C° 0 mm 1 m/S 744 mmHg 58%
21:00 +16°C° 0 mm 1 m/S 744 mmHg 58%
22:00 +16°C° 0 mm 1 m/S 744 mmHg 59%
23:00 +15°C° 0 mm 1 m/S 744 mmHg 63%

20 Mai, Donnerstag

Zeit Temperatur Niederschläge Wind Luftdruck Luftfeuchtigkeit
00:00 +14°C° 0 mm 1 m/S 744 mmHg 68%
01:00 +13°C° 0 mm 1 m/S 744 mmHg 73%
02:00 +11°C° 0 mm 0 m/S 744 mmHg 75%
03:00 +11°C° 0 mm 0 m/S 743 mmHg 76%
04:00 +11°C° 0 mm 0 m/S 743 mmHg 77%
05:00 +11°C° 0 mm 0 m/S 744 mmHg 77%
06:00 +11°C° 0 mm 0 m/S 744 mmHg 77%
07:00 +12°C° 0 mm 1 m/S 744 mmHg 77%
08:00 +14°C° 0 mm 1 m/S 745 mmHg 69%
09:00 +16°C° 0 mm 1 m/S 745 mmHg 62%
10:00 +19°C° 0 mm 1 m/S 745 mmHg 54%
11:00 +18°C° 0 mm 2 m/S 745 mmHg 53%
12:00 +19°C° 0 mm 3 m/S 744 mmHg 52%
13:00 +19°C° 0 mm 3 m/S 744 mmHg 52%
14:00 +18°C° 0 mm 3 m/S 744 mmHg 59%
15:00 +17°C° 0 mm 3 m/S 744 mmHg 66%
16:00 +16°C° 0 mm 3 m/S 745 mmHg 73%
17:00 +15°C° 0 mm 2 m/S 745 mmHg 76%
18:00 +15°C° 0 mm 2 m/S 745 mmHg 79%
19:00 +14°C° 0 mm 1 m/S 746 mmHg 82%
20:00 +14°C° 0 mm 1 m/S 746 mmHg 81%
21:00 +14°C° 0 mm 1 m/S 745 mmHg 81%
22:00 +14°C° 0 mm 1 m/S 745 mmHg 80%
23:00 +14°C° 0 mm 1 m/S 745 mmHg 79%

21 Mai, Freitag

Zeit Temperatur Niederschläge Wind Luftdruck Luftfeuchtigkeit
00:00 +14°C° 0 mm 1 m/S 745 mmHg 79%
01:00 +14°C° 0 mm 1 m/S 745 mmHg 78%
02:00 +13°C° 0 mm 1 m/S 745 mmHg 78%
03:00 +13°C° 0 mm 1 m/S 744 mmHg 79%
04:00 +13°C° 0 mm 1 m/S 744 mmHg 79%
05:00 +13°C° 0 mm 1 m/S 744 mmHg 79%
06:00 +13°C° 0 mm 1 m/S 744 mmHg 78%
07:00 +13°C° 0 mm 1 m/S 745 mmHg 78%
08:00 +13°C° 0 mm 1 m/S 745 mmHg 74%
09:00 +14°C° 0 mm 1 m/S 745 mmHg 71%
10:00 +15°C° 0 mm 1 m/S 745 mmHg 67%
11:00 +15°C° 0 mm 1 m/S 745 mmHg 66%
12:00 +15°C° 0 mm 2 m/S 745 mmHg 64%
13:00 +14°C° 0 mm 3 m/S 745 mmHg 63%
14:00 +14°C° 0 mm 3 m/S 745 mmHg 63%
15:00 +15°C° 0 mm 2 m/S 746 mmHg 63%
16:00 +15°C° 0 mm 2 m/S 746 mmHg 64%
17:00 +14°C° 0 mm 2 m/S 746 mmHg 69%
18:00 +13°C° 0 mm 1 m/S 747 mmHg 75%
19:00 +12°C° 0 mm 1 m/S 747 mmHg 80%
20:00 +11°C° 0 mm 1 m/S 747 mmHg 82%
21:00 +11°C° 0 mm 1 m/S 747 mmHg 84%
22:00 +10°C° 0 mm 1 m/S 747 mmHg 86%
23:00 +10°C° 0 mm 1 m/S 748 mmHg 85%
Mehr zeigen

Wir brauchen deine Erlaubnis

Meteoprog und unser Service Anbieter werden persönliche Daten aufbewahren, so wie Cookies, Geräte Bezeichnung oder ähnliche Technologien von deinem Gerät und Prozess, so wie Persönliche Daten Inhalte und Werbungen, genauso wie social Media und den Verkehr zu analysieren.

  • Aufbewahrung und/oder Zugang zu deiner Geräte Informationen.

    Cookies, Geräte Bezeichnung oder andere Informationen, können aufbewahrt oder Zugang zu deinem Gerät erhalten, für den Grund, der oben angegeben wird.

  • Personalisierte Werbung und Inhalte, Messungen, Einblick in das Publikum und Produkt Entwicklung.

    Werbungen und Inhalte können personalisiert werden, basierend auf ein Profil. Mehr Daten können besser personalisierte Werbungen und Inhalte hinzufügen. Werbung und Inhalte können gezeigt und gemessen werden. Einblicke über das Publikum, welche die Werbung gesehen haben und den Inhalt, können abgeleitet werden. So wie Daten können genutzt werden, um es zu verbessern oder die Benutzer Erfahrung zu verbessern das System und die Software.

Wenn du “Ich stimme zu” klickst, erlaubst du uns, die Cookies zu benutzen die Geräte Bezeichnung, den Web oder ähnliche Technologien zu benutzen. Deine Settings, können in deinem Gerät bei deinem Browser geändert werden.

Für den bestimmten Zweck, berechtigten Interessen beruhen darauf, mehr als auf den Inhalt. Du kannst mehr darüber in unseren Privaten und Cookie Politik lesen.